{"data":{"norad_id":44387,"epoch":"2026-09-20T05:12:07.796160Z","epoch_age_seconds":38816,"freshness":"FRESH","line1":"1 44387U 19038A   26263.21675690  .00000228  00000+0  11865-3 0  9997","line2":"2 44387  98.9256 251.9500 0002318  92.4942 267.6501 14.24387750374825","mean_motion":14.2438775,"eccentricity":0.0002318,"inclination_deg":98.9256,"raan_deg":251.95,"arg_perigee_deg":92.4942,"mean_anomaly_deg":267.6501,"bstar":0.00011865,"rev_number":37482,"period_min":101.09606741563,"perigee_km":808.88553932513,"apogee_km":812.21821548869,"semimajor_km":7188.6888774069,"source":"CELESTRAK","updated_at":"2026-09-20T09:00:34.379003Z"}}